Powrót do katalogu

STARLINK-37787

AktywnyŁącznośćSSO
NORAD 69692·PAYLOAD·🇺🇸 United States

Wystrzelony Jun 25, 2026 z Vandenberg Space Force Base

Loading…

Następne Przeloty (najbliższe 24 godziny)

TLE

ŚwieżeSource: CelesTrak SupGP

Epoka: Sep 14, 2026, 21:17 UTC

1 69692C 26145R   26257.88729167  .00062809  00000+0  19503-2 0  2571
2 69692  97.2848 104.6749 0001695  92.7303 346.8442 15.33397662    15

Śledź STARLINK-37787 w czasie rzeczywistym z AllMySat

Download on the App Store